Regional Weather Roundup
Issued by NWS

Home | Current Version | Previous Version | Graphics & Text | Print | Product List | Glossary On
Versions: 1 2 3 4 5 6 7 8 9 10 11 12 13 14 15 16 17 18 19 20 21 22 23 24 25 26 27 28 29 30 31 32 33 34 35 36 37 38 39 40 41 42 43 44 45 46 47 48 49 50
000
ASUS43 KLMK 030110
RWRKY
KENTUCKY REGIONAL WEATHER ROUNDUP
NATIONAL WEATHER SERVICE LOUISVILLE KY
900 PM EDT MON MAY 02 2016

NOTE "FAIR" INDICATES FEW OR NO CLOUDS BELOW 12,000 FEET
WITH NO SIGNIFICANT WEATHER AND/OR OBSTRUCTIONS TO VISIBILITY.

KYZ001>023-026-027-061>063-070>075-030200-
WESTERN AND SOUTH CENTRAL KENTUCKY

CITY           SKY/WX    TMP DP  RH WIND       PRES   REMARKS
PADUCAH        MOCLDY    59  48  67 N7        29.96R
HENDERSON      CLOUDY    57  46  67 NW7       29.96S
OWENSBORO      CLOUDY    60  50  69 N7        29.97S
HOPKINSVILLE   NOT AVBL
BOWLING GREEN  CLOUDY    62  56  80 SW3       29.95R
GLASGOW        CLOUDY    58  58 100 CALM      29.95R
$$

KYZ024-025-028>034-038-045-046-053-030200-
NORTH CENTRAL KENTUCKY

CITY           SKY/WX    TMP DP  RH WIND       PRES   REMARKS
LOUISVILLE/SDF CLOUDY    62  50  64 NW13      29.94R
LOUISVILLE/LOU CLOUDY    62  51  67 N6        29.94R
FORT KNOX      NOT AVBL
$$

KYZ035>037-039>044-047>052-055>060-089>105-030200-
NORTHEAST KENTUCKY

CITY           SKY/WX    TMP DP  RH WIND       PRES   REMARKS
LEXINGTON      CLOUDY    61  52  72 NW6       29.92F
COVINGTON      CLOUDY    59  51  75 NW9       29.92F
FRANKFORT      CLOUDY    61  52  72 NW7       29.91F
$$

KYZ054-064>069-076>088-106>120-030200-
SOUTHEAST KENTUCKY

CITY           SKY/WX    TMP DP  RH WIND       PRES   REMARKS
JACKSON        CLOUDY    58  57  97 CALM      29.93S
LONDON         CLOUDY    60  58  92 W3        29.94R
SOMERSET       CLOUDY    59  59 100 CALM      29.94F
MIDDLESBORO    CLOUDY    60  59  99 CALM      29.96R
MONTICELLO     CLOUDY    61  60  97 W12       29.95F
$$




USA.gov is the U.S. government's official web portal to all federal, state and local government web resources and services.